If you wish to contribute or participate in the discussions about articles you are invited to join SKYbrary as a registered user

 Actions

Antonio Roldán Betancourt Airport

From SKYbrary Wiki

SKLC
Airport
ICAO: SKLC – IATA: APO
Summary
Name Antonio Roldán Betancourt Airport
Region South America and Caribbean
Territory Colombia CO.gif
Location Vijagual, Antioquia Department
Serving Apartado
Elevation 14.021 m
46 ft14.021 m
Coordinates 7° 48' 57.86" N, 76° 43' 6.60" W
Runways
Designator Length Width Surface ROPS
15/33 2180 m7,152.231 ft
30 m98.425 ft
ASP /


METAR
Observation SKLC 231300Z 18003KT 8000 VCSH SCT004 BKN015 27/25 A2989 RMK VCSH/NE/N
Station Apartado / Los Cedros
Date/Time 23 April 2019 13:00:00
Wind direction 180°
Wind speed 03 kts
Lowest cloud amount scattered clouds
Temperature 27°C
Dew point 25°C
Humidity 88%
QNH hPa
Weather condition n/a

Antonio Roldán Betancourt Airport is an airport serving Apartadó, a town in the Antioquia Department of Colombia. The airport is in the countryside 12km6.479 nm
12,000 m
39,370.079 ft
southwest of Apartadó.

Climatology

Tropical rainforest climate (Köppen climate classification Af)

Maps

Terrain

Loading map...

Airport Layout

Loading map...


Accidents & Serious Incidents at or in vicinity of SKLC

None on SKYbrary